Home   Weather   New Paris   Past weeks
Flag for USA

Past Weather in New Paris, Pennsylvania, USA — Yesterday and Last 2 Weeks

Currently: 44 °F. Fog. (Weather station: Bedford County Airport, USA). See more current weather

Past Weather in New Paris — Graph

°F

New Paris Temperature Yesterday

Maximum temperature yesterday: 49 °F (at 4:35 pm)
Minimum temperature yesterday: 38 °F (at 12:15 am)
Average temperature yesterday: 43 °F

High & Low Weather Summary for the Past Weeks

 TemperatureHumidityPressure
High64 °F (Feb 26, 3:35 pm)98% (Feb 17, 2:15 am)30.53 "Hg (Feb 17, 2:15 am)
Low15 °F (Feb 20, 6:55 am)24% (Feb 25, 3:55 pm)29.48 "Hg (Feb 23, 2:15 pm)
Average35 °F68%30.01 "Hg
* Reported Feb 17 2:15 am — Mar 3 2:55 am, New Paris. Weather by CustomWeather, © 2024

Note: Actual official high and low records may vary slightly from our data, if they occured in-between our weather recording intervals... More about our weather records

New Paris Weather History for the Previous 24 Hours

Scroll right to see more
 ConditionsComfort  
Time TempWeatherWind HumidityBarometerVisibility
2:55 am
Sun, Mar 3
44 °FFog.No wind97%30.17 "Hg5 mi
2:35 am44 °FFog.No wind97%30.17 "Hg5 mi
2:15 am44 °FOvercast.No wind98%30.17 "Hg7 mi
1:55 am44 °FOvercast.No wind97%30.17 "Hg7 mi
1:35 am44 °FFog.No wind97%30.17 "Hg4 mi
12:55 am44 °FOvercast.No wind98%30.17 "Hg10 mi
12:35 am44 °FOvercast.No wind97%30.16 "Hg10 mi
11:55 pm
Sat, Mar 2
44 °FOvercast.No wind97%30.16 "Hg10 mi
11:35 pm45 °FMostly cloudy.No wind97%30.16 "Hg10 mi
10:55 pm44 °FMostly cloudy.No wind97%30.15 "Hg10 mi
10:35 pm45 °FMostly cloudy.No wind97%30.15 "Hg10 mi
10:15 pm45 °FMostly cloudy.No wind97%30.15 "Hg10 mi
9:55 pm45 °FMostly cloudy.No wind97%30.15 "Hg10 mi
9:15 pm46 °FMostly cloudy.No wind97%30.14 "Hg10 mi
8:55 pm46 °FOvercast.No wind97%30.14 "Hg10 mi
8:15 pm46 °FOvercast.No wind93%30.14 "Hg10 mi
7:55 pm46 °FOvercast.No wind95%30.14 "Hg10 mi
7:35 pm47 °FOvercast.No wind92%30.13 "Hg10 mi
7:15 pm47 °FOvercast.No wind92%30.13 "Hg10 mi
6:55 pm47 °FOvercast.No wind90%30.12 "Hg10 mi
6:35 pm47 °FOvercast.No wind85%30.12 "Hg10 mi
6:15 pm48 °FOvercast.No wind84%30.10 "Hg10 mi
5:55 pm48 °FOvercast.No wind80%30.11 "Hg10 mi
5:35 pm48 °FOvercast.No wind78%30.10 "Hg10 mi
5:15 pm48 °FScattered clouds.No wind77%30.10 "Hg10 mi
4:55 pm48 °FBroken clouds.No wind80%30.10 "Hg10 mi
4:35 pm49 °FOvercast.5 mph78%30.11 "Hg10 mi
3:55 pm48 °FOvercast.3 mph85%30.12 "Hg10 mi
3:35 pm47 °FOvercast.No wind89%30.12 "Hg10 mi
2:55 pm46 °FOvercast.No wind91%30.13 "Hg10 mi
2:35 pm46 °FOvercast.No wind92%30.13 "Hg10 mi
2:15 pm46 °FOvercast.No wind95%30.13 "Hg10 mi
1:55 pm46 °FOvercast.No wind90%30.14 "Hg10 mi
1:35 pm46 °FOvercast.No wind91%30.14 "Hg10 mi
12:55 pm45 °FLow clouds.No wind96%30.15 "Hg10 mi
12:35 pm44 °FLow clouds.No wind97%30.17 "Hg10 mi
11:55 am43 °FOvercast.No wind97%30.19 "Hg10 mi
11:35 am42 °FOvercast.No wind97%30.20 "Hg10 mi
11:15 am42 °FOvercast.No wind97%30.20 "Hg10 mi
10:55 am42 °FLow clouds.No wind97%30.21 "Hg10 mi
10:35 am41 °FLow clouds.No wind97%30.21 "Hg10 mi
10:15 am41 °FLow clouds.No wind97%30.22 "Hg7 mi
9:55 am41 °FFog.No wind97%30.22 "Hg5 mi
9:35 am40 °FLight snow. Low clouds.No wind97%30.23 "Hg4 mi
9:15 am40 °FFog.No wind97%30.23 "Hg2 mi
8:15 am39 °FLight snow. Low clouds.No wind98%30.25 "Hg2 mi
7:55 am39 °FLight snow. Low clouds.No wind98%30.25 "Hg2 mi
7:35 am38 °FLight snow. Low clouds.No wind98%30.25 "Hg2 mi
6:55 am38 °FLight snow. Mostly cloudy.3 mph97%30.25 "Hg3 mi
6:35 am38 °FLight snow. Overcast.6 mph97%30.25 "Hg3 mi
5:55 am39 °FLight snow. Overcast.8 mph97%30.26 "Hg4 mi
5:35 am39 °FLight snow. Low clouds.No wind97%30.26 "Hg4 mi
4:55 am38 °FLight snow. Low clouds.3 mph97%30.25 "Hg7 mi
4:35 am39 °FLight snow. Low clouds.5 mph98%30.26 "Hg10 mi
4:15 am38 °FLight snow. Low clouds.5 mph97%30.26 "Hg4 mi
Weather by CustomWeather, © 2024

See weather overview